NOAA 16 DEB, 41652

Orbit data source: Space-Track

NOAA 16 DEB, 41652 is space debris in SSO originally from a launch on Thu, 21 Sep 2000 UTC launched from the Air Force Western Test Range (AFWTR). Debris objects in space refer to the collection of defunct objects orbiting the Earth. Examples of debris include non-operational satellites, rocket bodies, and fragments generated from explosions, collisions, or faulty payload assembly.

Loading next visibility...
Identifier
41652, 2000-055NR
Orbit
SSO
Country
Flag of USUS
Related business
Manufacturer
Unknown
Mission
Spacecraft
Bus & Motor
Unknown
Mass
Unknown
Launch date (UTC)
2000-09-21 (25 years ago)
Launch vehicle
Unknown
Launch site
Air Force Western Test Range (AFWTR)
Object type
Payload
Rocket body
Debris
Shape & HBR
Unknown shape, 0.1 m
Radar Cross Section
Small (<0.1 m²)

Expand to show TLE details & history
Last TLE update: 23 hours ago

TLE from 23 hours ago
0 NOAA 16 DEB
1 41652U 00055NR  26073.77391485  .00018019  00000-0  51489-2 0  9998
2 41652  98.8720 186.1343 0026329 353.4678   6.6165 14.44941616511380
Epoch: 2026-03-14T18:34Z
TLE epoch observation values (Epoch: 2026-03-14T18:34:26.243Z)
Latitude
0.00003°
Longitude
95.13467°
Altitude
726.536 km
Speed
7.502 km/s
True Right ascension
12h 24m 32s
True Declination
0° 00' 00"
Sunlit
Object was in full shadow at epoch
Visualization orbit readout
Latitude
Unknown
Longitude
Unknown
Altitude
Unknown
Speed
Unknown
Apparent Right ascension
Unknown
Apparent Declination
Unknown
Sunlit
N/A
Visualization observer readout
Local Sidereal Time
22:00:41
Azimuth
Unknown
Elevation
Unknown
Doppler factor
Unknown
Orbital elements
Apogee altitude
758.091 km
Perigee altitude
720.612 km
Semi-major axis
7,117.488 km
Eccentricity
0.00263
Inclination
98.872°
RAAN
186.1343°
Arg. of periapsis
353.4678°
True anomaly
6.65138°
Mean anomaly
6.6165°
Eccentric anomaly
6.63393°
Mean motion
3.61454 °/min
Orbital period
99.6 mins
BSTAR
0.0051489
Loading maneuver chart data...
Computing Atmospheric mass density...
Loading historical data...
Loading historical data...
Loading historical data...
Loading historical data...
Loading historical data...
Loading historical data...
Loading historical data...

Documentation

Showing up to 5 results
|